Location: Unspecified
(0.0000°N, 0.0000°E)
Time: 14:38:18
(UTC+00:00)

STARLINK-35347 - Pass Details

Date: 22 February 2026
Orbit: 474 x 476 km, 53.2° (Epoch: 6 March)

Event Time Altitude Azimuth Distance (km) Brightness Sun altitude
Rises 18:28:35 0° 195° (SSW) 2,523 6.4 -3.7°
Reaches altitude 10° 18:31:00 10° 182° (S) 1,641 5.2 -4.3°
Maximum altitude 18:34:07 26° 124° (SE) 975 3.5 -5.1°
Drops below altitude 10° 18:37:13 10° 66° (ENE) 1,632 4.4 -5.9°
Enters shadow 18:38:07 - 60° (ENE) 1,947 4.8 -6.1°
